Dewpoint
54 54 54 53 54 55 55 55 55 55 55 56 55 56 56 56 57 57 57 58 58 59 59 59 60 60 61 61 61 60 60 57 42 38 35 51 61 64 67 68 67 67 64 45 32 27 23 21 20 20 26 29 35 36 35 38 35 34 26 17 12 13 9 18 15 17 23 20 21 21 22 21 19 23 24 23 22 21 21 22 26 30 31 31 33 33 33 34
53 53 53 53 54 55 55 55 55 55 55 55 55 56 56 56 57 56 57 58 58 59 59 60 60 60 61 61 60 60 58 55 39 34 41 60 66 67 67 66 67 65 59 37 25 20 20 19 19 20 20 22 36 27 35 37 38 32 16 13 14 13 22 19 21 20 20 20 20 23 23 22 22 22 23 21 20 20 19 21 25 29 30 30 31 32 33 34
53 53 53 52 53 53 54 55 54 55 55 55 55 56 56 56 56 57 57 58 58 59 59 59 60 60 60 61 60 60 58 48 33 30 45 64 65 67 66 64 64 64 44 31 25 25 23 22 21 18 17 18 20 25 31 31 30 25 27 18 18 23 20 22 22 22 24 23 21 22 23 22 23 23 24 20 19 20 18 18 20 24 28 29 30 32 33 34
53 54 53 53 53 52 53 54 54 54 54 55 55 55 56 56 57 57 58 58 58 59 59 59 59 60 60 60 60 59 59 49 26 32 51 64 66 67 63 60 58 57 42 29 29 28 24 23 21 19 18 17 21 24 27 30 32 31 27 20 20 14 17 19 21 23 23 23 23 22 24 21 23 23 22 20 19 17 21 27 27 28 28 29 30 32 34 33
54 53 53 53 53 53 53 53 54 54 55 55 55 56 55 57 57 57 58 58 58 58 59 59 59 60 60 60 60 57 49 29 29 37 57 65 66 63 61 59 60 45 36 29 29 26 25 23 21 19 20 14 19 19 19 28 27 30 20 20 17 17 21 21 23 25 25 25 23 23 20 21 24 22 21 21 19 19 27 28 30 30 29 30 30 32 34 34
53 53 52 53 53 53 53 53 54 54 55 55 55 56 56 56 57 57 58 58 58 58 58 59 59 59 60 60 58 58 44 13 27 44 63 64 65 59 59 54 58 44 30 28 27 26 25 23 20 20 13 11 16 16 22 24 26 23 21 24 24 24 24 24 24 27 25 23 22 22 22 23 22 20 21 21 23 29 31 31 30 30 31 30 31 33 33 35
54 53 52 53 53 52 53 54 54 54 54 55 55 56 56 57 57 57 58 58 58 58 58 59 59 60 59 59 58 46 33 24 32 55 62 62 63 61 57 58 58 41 31 28 26 27 23 21 19 17 15 14 14 16 21 21 28 24 20 22 23 25 22 24 25 27 24 23 22 23 24 21 21 20 22 21 30 30 30 30 30 30 30 31 31 32 33 34
53 53 53 52 53 52 52 52 54 54 54 55 55 56 56 57 57 58 58 58 58 58 58 59 59 59 58 57 49 40 35 26 47 56 60 60 56 52 53 45 39 40 32 27 26 24 23 20 18 17 15 14 18 18 22 22 22 22 21 23 25 24 23 24 25 25 24 24 23 24 22 21 21 20 21 22 29 29 30 30 30 30 30 30 30 31 32 34
54 54 53 53 52 52 53 52 52 55 54 55 55 56 57 57 57 57 58 58 58 58 58 59 59 58 58 53 43 27 19 48 51 53 59 51 47 44 47 39 35 33 28 28 26 28 25 22 18 17 18 17 19 18 21 20 22 23 23 23 24 23 23 23 24 24 24 24 23 23 22 22 21 21 20 25 29 29 29 29 29 29 29 29 30 31 32 33
54 54 54 53 53 53 54 53 53 55 55 55 55 56 57 57 57 58 58 58 58 58 58 59 59 57 52 49 39 22 44 49 54 54 54 46 42 41 40 43 33 31 28 27 28 28 25 25 23 21 24 19 20 21 22 21 22 24 23 24 23 23 23 24 23 23 22 23 22 22 21 20 21 20 18 25 29 29 28 28 28 28 28 29 30 32 32 33
54 55 56 54 54 53 53 53 53 54 55 55 55 56 57 57 57 57 58 58 58 58 58 58 58 56 52 40 29 20 53 55 52 49 46 45 39 36 39 40 37 33 28 31 28 28 29 25 30 25 25 20 22 22 23 23 24 23 23 23 24 24 24 24 23 23 22 22 22 21 21 20 20 21 19 26 28 28 27 27 27 29 29 29 30 31 34 33
54 54 56 55 55 54 54 54 54 54 55 55 56 56 57 57 57 58 58 58 57 58 58 58 58 52 42 34 29 33 43 54 53 47 45 45 45 47 47 41 37 44 32 30 32 38 39 32 31 21 21 25 21 24 24 24 24 23 24 22 23 24 23 23 22 21 23 21 20 20 19 19 20 19 22 27 27 28 27 26 27 27 28 31 30 31 32 33
55 54 55 56 55 55 54 54 54 53 54 55 55 56 57 57 58 58 58 57 57 58 58 58 56 55 47 32 33 45 47 50 47 44 43 45 44 42 43 45 43 37 39 36 35 42 40 35 30 23 27 24 24 23 25 25 24 24 23 23 22 22 22 23 22 21 21 20 21 21 19 19 19 21 23 25 27 27 26 26 26 26 27 28 29 31 32 33
56 56 56 56 56 54 54 54 54 54 55 55 55 56 57 57 58 57 57 57 57 58 58 58 57 50 40 28 39 47 52 47 46 42 43 46 41 46 44 44 43 40 46 41 43 41 38 32 33 28 28 26 23 28 24 24 25 23 23 23 24 23 21 23 23 23 21 20 21 21 22 18 20 22 26 26 26 26 25 25 25 26 27 28 31 31 32 33
56 56 56 57 56 55 54 55 54 54 55 55 56 56 57 57 57 57 57 57 58 57 56 57 57 50 34 31 43 53 59 49 43 45 47 43 41 42 39 38 40 39 38 39 39 38 35 36 32 25 25 27 27 25 25 24 23 23 23 23 27 24 23 22 23 22 22 20 20 21 23 20 19 24 26 26 26 26 25 25 25 26 26 27 28 28 30 32
56 56 55 56 56 55 55 55 54 54 55 55 56 57 57 58 56 57 58 58 58 57 57 55 48 42 35 28 44 56 51 41 41 49 47 44 49 41 41 39 38 37 34 32 34 33 33 36 30 31 26 26 26 25 25 26 26 25 24 26 25 27 24 22 23 24 24 20 21 20 20 20 18 25 26 25 25 24 23 24 26 25 26 26 26 28 30 32
56 56 57 57 56 55 56 55 54 54 54 55 57 57 57 57 57 57 57 58 56 56 57 43 37 37 28 39 42 39 38 47 48 48 45 45 46 41 38 39 35 34 35 34 36 36 32 29 32 34 30 26 26 27 26 27 26 26 27 24 27 24 24 21 22 24 27 21 20 21 20 20 21 24 26 26 26 24 23 24 25 26 26 26 28 28 29 30
56 56 56 56 56 56 56 55 54 54 55 56 57 57 57 57 57 56 57 58 57 53 48 43 41 42 35 37 31 32 43 42 49 46 46 41 45 37 37 33 34 34 34 32 35 31 32 29 29 27 28 27 25 26 27 23 26 24 27 28 24 23 22 21 22 22 23 22 22 21 20 21 20 24 24 26 26 24 24 24 25 25 26 27 27 27 28 30
57 57 56 55 55 56 57 55 55 55 56 57 58 58 57 57 57 55 50 49 45 40 33 36 36 26 16 33 37 40 46 46 46 45 40 40 42 39 38 35 37 31 32 28 30 30 31 34 34 30 28 27 25 24 26 26 24 24 23 23 24 24 24 22 23 23 23 23 23 23 23 22 23 23 24 26 26 25 24 25 26 25 26 27 27 28 29 31
57 57 56 56 56 56 57 56 55 55 56 57 56 56 55 50 51 44 47 47 41 31 37 37 33 33 36 36 39 43 46 47 41 45 43 42 38 37 35 34 39 35 30 31 33 29 34 31 29 28 28 27 27 26 25 24 25 24 27 27 23 24 24 24 24 24 24 23 24 25 25 24 24 24 24 25 26 26 25 25 26 26 26 27 27 28 30 31
57 56 57 56 56 57 57 56 55 56 56 57 55 52 37 33 32 21 43 42 42 39 35 36 34 33 33 41 44 40 36 37 39 43 42 43 41 35 33 33 33 31 31 30 34 29 31 30 30 29 27 26 26 26 25 25 25 24 25 26 25 28 24 25 24 24 24 25 26 26 25 25 25 25 25 26 25 25 26 26 26 26 26 28 29 29 31 30
57 57 57 57 58 58 57 56 55 56 57 57 55 48 47 48 48 45 44 32 43 43 42 40 39 36 36 38 41 42 40 35 38 43 46 42 37 33 32 31 31 29 31 33 31 30 30 28 28 28 28 27 26 26 25 25 25 26 25 26 27 26 28 26 24 24 24 25 25 25 25 25 25 25 26 26 26 26 26 27 26 26 27 28 29 30 30 31
56 57 58 58 58 58 57 57 56 56 56 54 53 51 50 52 49 50 48 44 40 43 43 42 40 37 36 38 40 39 33 32 32 43 40 43 36 35 32 30 29 28 32 29 30 31 29 30 28 27 28 27 26 26 25 26 27 26 27 27 26 29 29 26 25 26 25 24 25 26 25 26 27 27 27 28 26 27 28 29 30 28 27 27 27 29 30 30
56 56 57 58 58 58 57 56 56 56 55 53 52 51 54 49 51 48 48 38 33 42 42 42 40 38 37 35 39 36 32 32 31 38 42 40 34 36 33 30 28 29 29 28 27 28 27 28 28 27 28 27 26 26 26 25 24 30 30 29 27 28 28 27 26 26 25 25 27 25 27 27 28 27 27 27 28 28 29 29 29 31 32 30 31 31 31 30
56 56 57 58 58 58 57 56 55 53 53 54 52 52 54 56 55 55 44 33 34 37 48 47 47 45 39 45 41 35 34 33 34 38 42 39 34 33 31 31 29 27 28 28 27 28 27 27 31 27 29 27 29 25 28 30 26 27 31 29 28 27 26 27 29 27 27 29 27 27 27 27 29 29 28 27 27 26 26 27 27 28 30 30 30 30 31 32
57 57 57 57 58 58 57 53 53 53 53 51 52 54 54 55 56 53 46 31 28 36 42 37 44 37 44 38 41 38 36 32 39 42 42 41 40 34 30 29 29 28 28 29 27 28 27 28 32 31 31 32 30 29 30 29 27 28 27 30 28 27 29 30 30 30 28 27 29 28 27 26 27 25 26 25 26 25 25 27 26 27 27 28 28 29 29 30
57 57 57 57 58 57 53 50 53 54 51 51 53 54 55 57 56 53 28 26 26 39 36 45 39 38 48 38 38 36 30 33 42 43 41 43 35 41 29 28 29 29 28 29 31 28 31 27 32 33 31 32 32 27 31 28 28 27 37 36 32 31 32 32 31 31 29 32 32 28 29 26 27 27 27 26 25 25 25 25 26 26 26 26 27 28 29 29
57 57 57 58 58 56 53 53 53 52 49 52 53 55 56 55 53 51 35 22 23 42 40 39 40 43 43 40 41 33 34 37 35 38 39 41 38 33 31 29 29 30 28 30 27 36 30 32 33 32 32 31 29 30 34 31 29 32 35 35 33 31 32 32 32 30 31 29 27 28 31 26 26 27 27 26 25 25 25 25 26 25 26 26 27 28 29 28
57 57 57 57 58 57 56 54 52 51 53 53 54 54 56 53 51 39 31 23 41 36 45 37 43 40 40 40 39 36 35 35 33 36 41 37 38 34 31 31 30 29 28 30 29 37 34 35 32 32 33 29 35 32 34 33 29 37 36 35 34 34 33 33 31 31 30 27 27 28 29 26 26 28 26 26 26 26 26 25 25 26 25 26 26 28 28 27
57 57 57 57 57 56 57 57 53 55 52 53 54 54 53 49 42 30 30 26 39 32 38 37 38 37 38 36 36 34 33 34 36 37 36 34 35 37 33 35 30 30 31 28 33 33 31 32 37 34 32 33 31 31 36 37 35 35 34 33 32 32 32 30 30 28 28 26 26 29 29 28 25 28 27 29 29 26 25 25 25 26 26 26 27 28 28 27
57 57 57 57 55 55 56 53 53 54 54 54 53 51 48 45 36 26 28 28 34 39 36 36 35 38 36 35 35 35 35 34 35 35 34 33 32 33 32 32 34 32 33 33 32 36 32 33 34 34 33 33 32 34 34 34 36 35 32 31 31 30 28 28 27 29 26 26 28 28 29 29 25 26 28 25 24 25 24 24 24 25 25 26 27 27 26 26
57 57 57 57 58 57 53 52 54 55 54 53 52 49 44 35 38 32 28 27 23 31 35 34 37 37 36 37 38 35 34 33 34 34 33 33 33 31 31 32 33 30 30 30 30 36 34 34 34 37 35 32 36 32 31 33 34 34 30 30 28 28 25 24 25 24 24 25 23 24 30 28 27 26 25 24 24 24 25 25 24 25 25 26 27 27 26 27
56 56 56 57 57 56 55 55 54 53 51 51 50 48 42 34 29 34 31 29 24 37 35 38 37 36 37 37 38 36 38 34 34 34 36 36 34 34 35 33 35 33 30 33 32 32 32 36 34 37 34 34 35 30 29 29 29 30 29 28 28 27 27 25 25 25 24 26 21 22 27 26 26 24 27 26 25 26 27 29 27 26 25 26 27 27 26 27
56 56 57 57 58 57 57 56 53 51 50 50 48 44 42 31 29 36 33 32 35 36 36 37 36 38 37 36 38 37 35 37 35 34 35 35 34 34 34 34 34 35 36 33 30 31 29 31 33 35 32 35 34 33 32 32 29 29 34 31 30 29 28 25 25 23 24 24 20 25 24 23 23 22 25 25 26 27 26 27 29 27 27 28 27 27 27 26
56 57 58 57 57 58 58 55 52 52 50 50 47 41 34 32 32 31 33 33 35 33 35 38 38 38 38 38 36 36 36 35 36 34 35 35 33 34 34 33 35 35 37 32 34 32 32 30 35 36 38 34 34 36 36 34 31 31 33 33 30 29 30 26 25 23 23 22 21 23 23 23 22 26 28 27 26 26 27 28 27 26 26 28 27 27 27 26
56 56 58 56 56 57 58 55 55 52 50 48 42 36 34 33 32 36 35 35 33 35 34 36 39 36 36 37 36 36 38 36 35 35 34 35 35 34 37 36 35 35 34 31 34 30 33 30 37 35 35 32 33 36 35 35 29 30 31 29 30 32 30 28 26 25 25 24 22 25 22 24 23 23 25 24 25 25 26 26 26 25 27 28 27 27 26 26
54 56 53 55 56 58 58 56 54 53 51 46 41 34 39 37 39 37 37 34 35 34 36 32 35 33 34 34 35 35 36 36 36 35 33 36 34 35 36 36 37 35 34 34 34 37 31 32 33 35 32 32 32 35 35 35 35 31 28 30 34 33 32 28 26 25 23 23 24 24 23 21 22 21 26 25 24 24 25 25 25 26 27 27 28 28 27 26
54 54 53 54 56 58 58 55 54 52 49 43 38 38 42 40 40 37 38 36 35 35 34 32 34 36 33 34 34 34 35 33 34 35 33 34 32 37 36 36 36 35 34 36 33 36 35 29 32 34 34 34 33 33 32 34 34 31 31 36 29 27 26 26 26 24 23 23 23 22 21 22 22 24 23 24 23 24 24 26 25 25 26 27 27 27 27 26
55 53 49 53 57 58 57 55 53 49 45 40 37 37 41 41 42 39 38 35 36 35 33 34 32 35 33 33 34 34 34 32 35 34 32 34 31 36 35 36 37 35 35 35 34 34 36 30 29 32 33 33 32 32 29 29 33 32 33 31 35 28 27 26 26 27 24 23 24 25 24 22 27 23 23 23 23 25 24 25 25 24 25 26 27 27 27 26
52 49 48 55 57 58 56 54 50 47 43 36 37 38 42 42 41 40 39 37 36 34 35 34 35 32 34 33 35 33 36 34 34 34 33 35 32 35 34 37 36 37 35 34 36 37 32 32 28 29 34 31 27 30 30 30 28 27 27 27 30 30 30 26 27 26 24 23 22 22 22 23 25 23 23 23 22 24 25 26 27 26 25 26 27 28 28 27
54 49 50 57 57 57 55 51 46 41 40 41 41 40 41 40 42 41 40 39 40 38 34 35 34 32 34 34 32 35 35 34 34 33 34 33 32 32 35 36 37 37 36 35 35 35 32 30 29 27 28 27 29 31 32 34 31 29 28 28 29 28 26 25 24 28 26 23 23 22 22 26 28 24 23 23 22 26 27 27 28 28 25 26 28 28 28 28
50 43 48 57 57 55 50 43 43 44 41 39 38 41 41 43 41 40 41 41 41 37 41 37 39 37 35 34 35 36 36 34 35 34 35 34 35 32 36 36 36 37 34 32 33 36 34 35 31 28 28 29 31 33 35 34 33 33 29 29 31 28 27 26 24 25 25 25 27 24 22 23 29 27 27 25 26 27 28 29 28 28 27 26 27 28 29 28
48 46 56 57 56 53 48 42 43 42 41 42 43 42 45 42 42 42 39 40 40 40 39 40 36 36 37 35 37 36 35 34 36 34 36 36 35 33 39 36 38 38 37 34 36 33 35 31 29 30 32 33 31 34 37 35 34 31 31 33 31 29 29 27 26 28 24 25 23 23 22 25 28 31 29 28 29 29 29 28 29 28 28 27 28 28 29 28
49 49 50 56 56 53 46 38 37 39 41 43 43 42 44 43 42 41 41 40 39 39 37 39 40 35 36 38 37 35 35 32 37 36 35 37 35 41 38 38 37 36 35 34 33 35 30 30 31 29 29 28 30 31 32 34 32 29 28 30 32 33 33 32 29 27 24 27 26 23 22 24 29 30 30 27 26 26 25 28 29 30 30 30 28 28 29 28
47 48 48 50 54 52 44 44 41 39 40 40 41 40 42 43 45 42 42 41 41 38 39 37 37 39 37 41 40 38 37 34 32 38 37 38 36 39 42 38 35 35 37 46 37 37 33 32 31 29 28 27 27 27 27 29 28 29 30 31 32 32 31 28 26 27 25 27 28 24 24 28 28 27 26 26 26 25 26 26 28 31 30 29 30 29 29 29
44 38 44 46 49 48 48 48 44 41 39 39 39 40 40 40 42 45 44 43 41 41 38 40 40 38 39 40 39 38 37 37 35 35 37 37 40 38 40 40 38 39 40 39 38 36 32 34 32 32 30 29 30 32 35 33 29 28 29 30 31 32 31 31 28 26 25 27 27 27 27 27 25 25 25 26 28 25 25 27 26 28 30 30 30 30 29 29
47 41 41 37 45 45 43 45 43 42 39 40 35 38 38 40 40 44 46 43 44 43 43 43 42 40 40 39 38 37 37 37 38 38 38 36 42 40 38 40 40 39 39 37 38 33 29 29 33 33 33 33 34 33 33 33 31 30 30 29 30 31 30 30 28 26 29 27 25 28 30 28 27 25 25 25 26 25 24 26 27 27 29 31 30 30 31 28
40 42 45 46 40 37 40 41 44 42 41 41 38 40 39 39 39 39 44 44 45 46 42 43 43 42 40 39 39 36 38 37 37 36 38 39 38 38 36 37 36 35 38 38 40 36 31 29 32 34 33 34 36 34 32 33 32 32 31 31 30 30 30 29 29 29 30 27 25 30 30 29 27 26 26 26 26 24 25 26 27 28 30 29 29 28 28 27
46 44 45 47 41 41 42 42 43 43 42 41 39 40 38 38 38 39 41 42 43 42 43 39 41 42 42 41 40 37 37 35 35 37 35 36 36 36 35 36 37 37 38 36 36 37 31 30 32 32 31 32 33 34 34 32 32 32 32 32 32 30 29 29 29 29 30 29 29 32 32 31 29 27 26 26 28 26 27 29 29 29 29 28 28 28 28 27
41 41 40 43 43 42 42 41 42 42 39 41 37 38 38 38 38 40 42 42 38 40 44 41 40 42 43 42 42 40 39 38 37 35 36 36 34 35 34 34 34 36 37 34 36 39 33 29 32 34 32 31 32 33 33 33 31 30 32 33 32 31 30 30 29 29 30 29 29 29 30 30 30 28 28 33 32 31 29 26 26 29 30 28 28 27 27 27
44 44 45 42 39 41 40 41 40 40 37 39 37 37 39 39 39 40 40 42 41 40 42 41 41 41 42 42 42 42 42 41 40 39 39 37 34 35 35 35 36 34 35 34 34 34 34 31 35 33 30 30 31 31 31 32 31 30 30 30 30 30 30 29 29 29 28 28 28 28 28 28 30 30 32 32 31 30 30 29 28 30 28 28 28 27 27 27
44 44 43 46 38 40 39 38 39 39 34 37 39 38 38 38 40 42 40 41 42 43 43 43 43 43 41 40 41 42 44 44 44 43 42 41 42 41 39 39 38 36 33 33 33 33 33 31 32 32 30 29 31 32 32 31 30 29 29 30 30 31 31 30 30 30 29 29 29 28 27 29 31 32 29 30 30 30 30 30 30 30 30 28 28 28 28 27